Location: Unspecified
(42.3650°N, 71.1030°W)
Time: 14:15:21
(UTC+00:00)

Explorer 11/Cluster Stage 4 - Pass Details

Date: 30 June 2024
Orbit: 465 x 1215 km, 28.8° (Epoch: 21 July)

Event Time Altitude Azimuth Distance (km) Brightness Sun altitude
Rises 01:02:22 0° 254° (WSW) 3,919 10.7 -6.3°
Reaches altitude 10° 01:05:34 10° 243° (WSW) 3,043 9.9 -6.8°
Maximum altitude 01:11:40 26° 190° (S) 2,169 8.6 -7.7°
Drops below altitude 10° 01:17:58 10° 138° (SE) 3,148 9.0 -8.5°
Enters shadow 01:18:02 10° 138° (SE) 3,165 9.0 -8.5°
Sets 01:21:21 0° 127° (SE) 4,080 - -9.0°
